This is the latest recevied weather packets stored in our database for station/object EA7URS-13. If no packets are shown the sender has not sent any weather packets the latest 10 day(s).
| Time | Temp. | Humidity | Pressure | Rain* | Wind** | Luminosity | Snow |
|---|---|---|---|---|---|---|---|
| 1788430507 | 34.44° C | 38% | 1012.6 hPa | 0 mm | - | 574 W/m² | - |
| 1788430206 | 33.89° C | 38% | 1012.8 hPa | 0 mm | - | 565 W/m² | - |
| 1788429905 | 33.89° C | 38% | 1012.8 hPa | 0 mm | - | 565 W/m² | - |
| 1788429604 | 33.89° C | 38% | 1012.8 hPa | 0 mm | - | 298 W/m² | - |
| 1788429301 | 33.89° C | 38% | 1012.8 hPa | 0 mm | - | 298 W/m² | - |
| 1788429000 | 33.33° C | 40% | 1012.7 hPa | 0 mm | - | 303 W/m² | - |
| 1788428699 | 33.33° C | 40% | 1012.7 hPa | 0 mm | - | 303 W/m² | - |
| 1788428398 | 32.22° C | 42% | 1012.6 hPa | 0 mm | - | 458 W/m² | - |
| 1788428097 | 32.22° C | 42% | 1012.6 hPa | 0 mm | - | 458 W/m² | - |
| 1788427795 | 31.67° C | 44% | 1012.7 hPa | 0 mm | - | 452 W/m² | - |
| 1788427494 | 31.67° C | 44% | 1012.7 hPa | 0 mm | - | 452 W/m² | - |
| 1788427193 | 30.56° C | 45% | 1012.7 hPa | 0 mm | - | 433 W/m² | - |
| 1788426892 | 30.56° C | 45% | 1012.7 hPa | 0 mm | - | 433 W/m² | - |
| 1788426591 | 30° C | 48% | 1012.7 hPa | 0 mm | - | 403 W/m² | - |
| 1788426290 | 30° C | 48% | 1012.7 hPa | 0 mm | - | 403 W/m² | - |
| 1788425989 | 28.89° C | 49% | 1012.5 hPa | 0 mm | - | 370 W/m² | - |
| 1788425688 | 28.89° C | 49% | 1012.5 hPa | 0 mm | - | 370 W/m² | - |
| 1788425387 | 28.33° C | 49% | 1012.3 hPa | 0 mm | - | 328 W/m² | - |
| 1788425086 | 28.33° C | 49% | 1012.3 hPa | 0 mm | - | 328 W/m² | - |
| 1788424785 | 28.33° C | 51% | 1012.5 hPa | 0 mm | - | 272 W/m² | - |
| 1788424483 | 28.33° C | 51% | 1012.5 hPa | 0 mm | - | 272 W/m² | - |
| 1788424182 | 28.33° C | 49% | 1012.4 hPa | 0 mm | - | 268 W/m² | - |
| 1788423881 | 28.33° C | 49% | 1012.4 hPa | 0 mm | - | 268 W/m² | - |
| 1788423580 | 27.78° C | 51% | 1012.5 hPa | 0 mm | - | 263 W/m² | - |
| 1788423279 | 27.78° C | 51% | 1012.5 hPa | 0 mm | - | 263 W/m² | - |
* Rain latest hour (hover to see other rain measurements)
** Current wind speed in m/s (hover to see current wind gust speed)